Hourly Data Report for July 19, 2021

WINNIPEG THE FORKS
MANITOBA
Current Station Operator: ECCC - MSC

49°53'18.008" N
97°07'46.007" W
230.00 m
5023262
71579
XWN

Download Data

Hourly Data (July 2021)
Hourly Data Report for July 19, 2021
TIME
LST
Temp Definition
°C
Dew Point Definition
°C
Rel Hum Definition
%
Precip. Amount Definition
mm

Wind Dir Definition
10's deg

Wind Spd Definition
km/h
Visibility Definition
km
Stn Press Definition
kPa
Hmdx Definition


Wind Chill Definition


Weather Definition


00:00 26.1 18.0 61 0.0 20 11   98.92 32   LegendNANA
01:00 25.4 18.2 64 0.0 20 8   98.91 32   LegendNANA
02:00 24.6 18.2 67 0.0 21 7   98.90 31   LegendNANA
03:00 23.7 18.4 72 0.0 23 5   98.96 30   LegendNANA
04:00 22.5 18.0 76 0.0 34 10   99.08 29   LegendNANA
05:00 21.2 17.8 81 0.2 2 3   98.95 27   LegendNANA
06:00 20.4 17.3 82 0.2 33 10   99.11 26   LegendNANA
07:00 19.5 16.8 84 0.0 36 7   99.23     LegendNANA
08:00 18.7 16.2 85 0.0 34 9   99.29     LegendNANA
09:00 18.8 16.3 86 0.0 36 8   99.27     LegendNANA
10:00 19.3 16.3 83 0.0 1 9   99.28     LegendNANA
11:00 20.1 16.6 80 0.0 36 9   99.30 25   LegendNANA
12:00 19.6 16.1 80 0.0 35 10   99.37     LegendNANA
13:00 19.8 15.7 77 0.0 33 7   99.42     LegendNANA
14:00 20.4 16.0 76 0.0 34 6   99.40 25   LegendNANA
15:00 21.2 15.6 70 0.0 36 9   99.36 26   LegendNANA
16:00 22.2 15.9 67 0.0 1 7   99.37 27   LegendNANA
17:00 22.4 16.0 67 0.0 36 8   99.37 27   LegendNANA
18:00 22.9 16.3 66 0.0 36 8   99.31 28   LegendNANA
19:00 22.5 16.4 68 0.0 36 7   99.25 27   LegendNANA
20:00 21.9 16.3 71 0.0 3 4   99.34 27   LegendNANA
21:00 20.6 15.9 74 0.0 2 1   99.38 25   LegendNANA
22:00 20.5 16.2 76 0.0 36 2   99.41 25   LegendNANA
23:00 19.9 15.9 78 0.0 33 6   99.39     LegendNANA

Notes on Data Quality.

Legend

  • E = Estimated
  • M = Missing
  • NA = Not Available*
  • [empty] = Indicates an unobserved value
Date modified: